Overview Statistics Trail Chart Weather Telemetry Raw packets
 

This is the latest recevied weather packets stored in our database for station/object N7IGG. If no packets are shown the sender has not sent any weather packets the latest 10 day(s).

<< 62 63 64 65 66 67 68 >>
Time Temp. Humidity Pressure Rain* Wind** Luminosity Snow
1777736072 10.56° C 95% 1017.3 hPa 0 mm - 54 W/m² -
1777735768 10.56° C 95% 1017.1 hPa 0 mm - 44 W/m² -
1777735466 10.56° C 95% 1017.1 hPa 0 mm - 39 W/m² -
1777735164 10.56° C 95% 1017.2 hPa 0 mm - 37 W/m² -
1777734860 10.56° C 95% 1017.2 hPa 0 mm - 37 W/m² -
1777734558 10.56° C 95% 1017.2 hPa 0 mm - 35 W/m² -
1777734254 10.56° C 95% 1017.1 hPa 0 mm - 34 W/m² -
1777733951 10.56° C 95% 1017.3 hPa 0 mm - 33 W/m² -
1777733647 10.56° C 95% 1017.3 hPa 0 mm - 29 W/m² -
1777733344 10.56° C 95% 1017.1 hPa 0 mm - 28 W/m² -
1777733041 10.56° C 95% 1017 hPa 0 mm - 27 W/m² -
1777732737 10° C 95% 1016.9 hPa 0 mm - 28 W/m² -
1777732434 10.56° C 95% 1017.1 hPa 0 mm - 29 W/m² -
1777732132 10.56° C 95% 1016.8 hPa 0 mm - 29 W/m² -
1777731828 10° C 95% 1016.9 hPa 0 mm - 28 W/m² -
1777731525 10.56° C 95% 1016.9 hPa 0 mm - 27 W/m² -
1777731223 10° C 95% 1016.9 hPa 0 mm - 26 W/m² -
1777730921 10.56° C 95% 1017.1 hPa 0 mm - 23 W/m² -
1777730618 10.56° C 95% 1017.1 hPa 0 mm - 23 W/m² -
1777730314 10° C 95% 1017.2 hPa 0 mm - 21 W/m² -
1777730011 10° C 95% 1017.1 hPa 0 mm - 20 W/m² -
1777729707 10° C 95% 1017.2 hPa 0 mm - 17 W/m² -
1777729404 10° C 95% 1017.4 hPa 0 mm - 16 W/m² -
1777729100 10° C 94% 1017.3 hPa 0 mm - 15 W/m² -
1777728797 10° C 94% 1017.3 hPa 0 mm - 13 W/m² -

* Rain latest hour (hover to see other rain measurements)
** Current wind speed in m/s (hover to see current wind gust speed)